FW1293 Weather Reports


Display with metric or nautical units.
time (UTC)temp
F
wind
direction
speed
MPH
gust
MPH
rain 1hr
in
rain 24hr
in
rain mn
in
humidity
%
barometer
mb
20260504081541 41 102 9.0 13.0 0.00 0.00 0.00 86 1009.7
20260504060104 40 94 2.0 9.0 0.00 0.00 0.00 74 1010.1
20260504044556 40 117 5.0 11.0 0.00 0.00 0.00 62 1010.5
20260504043058 41 92 3.0 14.0 0.00 0.00 0.00 60 1010.7
20260504041554 41 99 1.0 8.0 0.00 0.00 0.00 59 1010.8
20260504040022 40 47 2.0 9.0 0.00 0.00 0.00 59 1010.9
20260504034522 40 95 1.0 2.0 0.00 0.00 0.00 56 1010.7
20260504033019 39 120 2.0 5.0 0.00 0.00 0.00 57 1010.7
20260504031519 39 116 1.0 3.0 0.00 0.00 0.00 57 1010.7
20260504030020 39 129 0.0 3.0 0.00 0.00 0.00 57 1010.7
20260504024518 39 148 2.0 4.0 0.00 0.00 0.00 58 1010.8
20260504023015 38 117 2.0 7.0 0.00 0.00 0.00 59 1010.8
20260504021515 39 129 1.0 3.0 0.00 0.00 0.00 58 1010.9
20260504020021 39 117 1.0 3.0 0.00 0.00 0.00 59 1010.9
20260504014514 39 86 2.0 5.0 0.00 0.00 0.00 60 1010.9
20260504013056 39 235 0.0 4.0 0.00 0.00 0.00 59 1010.8
20260504011543 39 234 1.0 4.0 0.00 0.00 0.00 59 1010.7
20260504010042 39 221 1.0 6.0 0.00 0.00 0.00 60 1010.6
20260504004540 39 167 1.0 3.0 0.00 0.00 0.00 62 1010.4
20260504003039 39 137 0.0 3.0 0.00 0.00 0.00 61 1010.4
20260504001543 40 138 0.0 5.0 0.00 0.00 0.00 61 1010.3
20260504000037 41 90 2.0 4.0 0.00 0.00 0.00 59 1010.1
20260503234536 42 114 2.0 7.0 0.00 0.00 0.00 58 1010.2
20260503233036 42 73 2.0 7.0 0.00 0.00 0.00 58 1010.1
20260503231535 43 88 4.0 11.0 0.00 0.00 0.00 57 1009.9
20260503230013 42 67 1.0 7.0 0.00 0.00 0.00 58 1009.9
20260503224504 42 97 5.0 10.0 0.00 0.00 0.00 57 1009.9
20260503223035 43 78 3.0 10.0 0.00 0.00 0.00 58 1009.9
20260503221533 43 74 3.0 13.0 0.00 0.00 0.00 55 1010.0
20260503220029 43 98 2.0 10.0 0.00 0.00 0.00 58 1009.8
20260503214629 44 54 7.0 12.0 0.00 0.00 0.00 57 1009.8
20260503213027 43 98 6.0 12.0 0.00 0.00 0.00 58 1009.8
20260503211526 42 77 2.0 15.0 0.00 0.00 0.00 60 1009.8
20260503210024 42 85 4.0 12.0 0.00 0.00 0.00 61 1009.8
20260503204524 42 89 6.0 15.0 0.00 0.00 0.00 60 1009.8
20260503203032 42 77 8.0 19.0 0.00 0.00 0.00 61 1009.8
20260503201521 41 165 5.0 11.0 0.00 0.00 0.00 62 1009.7
20260503200026 41 96 7.0 15.0 0.00 0.00 0.00 63 1009.8
20260503200020 41 86 7.0 15.0 0.00 0.00 0.00 63 1009.8
20260503194549 40 117 7.0 16.0 0.00 0.00 0.00 63 1009.9
20260503193051 41 86 6.0 15.0 0.00 0.00 0.00 61 1010.0
20260503191606 40 67 9.0 16.0 0.00 0.00 0.00 64 1009.9
20260503190045 41 84 6.0 17.0 0.00 0.00 0.00 65 1010.2
20260503184544 41 59 9.0 18.0 0.00 0.00 0.00 60 1010.1
20260503183044 41 154 6.0 17.0 0.00 0.00 0.00 57 1010.1
20260503181548 40 47 6.0 14.0 0.00 0.00 0.00 59 1010.1
20260503180042 41 123 7.0 13.0 0.00 0.00 0.00 60 1010.1
20260503174546 40 107 2.0 12.0 0.00 0.00 0.00 61 1010.2
20260503173040 40 212 6.0 16.0 0.00 0.00 0.00 59 1010.1
20260503171509 40 67 4.0 13.0 0.00 0.00 0.00 59 1010.2
20260503160108 41 68 6.0 14.0 0.00 0.00 0.00 56 1010.4